When you browse on this site, cookies collect data to enhance your experience and personalize the content and advertising you see.
Visit our Privacy Policy to learn more. By continuing to use the site, you agree to this use of cookies and data.
  • In Hungary
  • List of Countries
  • For 7 days
  • Water Temperature
  • Weather Map
  • News
  • Weather Widgets
  • user-avatar
    Login

    Hourly Weather Peski

    Today, 21 August, Wednesday

    Time Temperature Precipitation Wind Pressure Humidity
    00:00 +14°C° 0 mm 0 mps 755 mmHg 87%
    01:00 +15°C° 0 mm 1 mps 755 mmHg 86%
    02:00 +15°C° 0 mm 1 mps 755 mmHg 86%
    03:00 +14°C° 0 mm 1 mps 755 mmHg 87%
    04:00 +14°C° 0 mm 1 mps 755 mmHg 87%
    05:00 +14°C° 0 mm 1 mps 755 mmHg 88%
    06:00 +15°C° 0 mm 1 mps 755 mmHg 83%
    07:00 +18°C° 0 mm 1 mps 755 mmHg 79%
    08:00 +18°C° 0 mm 2 mps 755 mmHg 75%
    09:00 +19°C° 0 mm 2 mps 755 mmHg 71%
    10:00 +20°C° 0 mm 2 mps 754 mmHg 67%
    11:00 +21°C° 0 mm 2 mps 754 mmHg 63%
    12:00 +21°C° 0.1 mm 2 mps 754 mmHg 70%
    13:00 +20°C° 0.1 mm 2 mps 753 mmHg 77%
    14:00 +19°C° 0.1 mm 2 mps 753 mmHg 84%
    15:00 +20°C° 0.9 mm 2 mps 752 mmHg 88%
    16:00 +20°C° 0.9 mm 2 mps 751 mmHg 91%
    17:00 +21°C° 0.9 mm 2 mps 751 mmHg 95%
    18:00 +21°C° 1.1 mm 2 mps 750 mmHg 94%
    19:00 +21°C° 1.1 mm 2 mps 750 mmHg 94%
    20:00 +20°C° 1.1 mm 3 mps 750 mmHg 94%
    21:00 +20°C° 1 mm 3 mps 750 mmHg 95%
    22:00 +19°C° 1 mm 3 mps 750 mmHg 97%
    23:00 +18°C° 1 mm 3 mps 750 mmHg 98%

    Tomorrow, 22 August, Thursday

    Time Temperature Precipitation Wind Pressure Humidity
    00:00 +17°C° 0.6 mm 3 mps 751 mmHg 97%
    01:00 +15°C° 0.6 mm 4 mps 751 mmHg 97%
    02:00 +14°C° 0.6 mm 4 mps 752 mmHg 96%
    03:00 +13°C° 0 mm 4 mps 752 mmHg 96%
    04:00 +13°C° 0 mm 4 mps 752 mmHg 95%
    05:00 +13°C° 0 mm 4 mps 753 mmHg 95%
    06:00 +13°C° 0 mm 4 mps 753 mmHg 92%
    07:00 +14°C° 0 mm 3 mps 754 mmHg 90%
    08:00 +14°C° 0 mm 3 mps 755 mmHg 87%
    09:00 +17°C° 0 mm 3 mps 755 mmHg 79%
    10:00 +18°C° 0 mm 3 mps 755 mmHg 72%
    11:00 +20°C° 0 mm 3 mps 755 mmHg 64%
    12:00 +20°C° 0 mm 3 mps 755 mmHg 61%
    13:00 +21°C° 0 mm 3 mps 755 mmHg 57%
    14:00 +22°C° 0 mm 3 mps 755 mmHg 54%
    15:00 +21°C° 0 mm 2 mps 755 mmHg 58%
    16:00 +21°C° 0 mm 2 mps 755 mmHg 61%
    17:00 +22°C° 0 mm 1 mps 755 mmHg 65%
    18:00 +20°C° 0 mm 1 mps 756 mmHg 70%
    19:00 +18°C° 0 mm 1 mps 756 mmHg 75%
    20:00 +15°C° 0 mm 1 mps 756 mmHg 80%
    21:00 +15°C° 0 mm 1 mps 756 mmHg 83%
    22:00 +14°C° 0 mm 1 mps 756 mmHg 85%
    23:00 +14°C° 0 mm 1 mps 757 mmHg 87%

    Day after tomorrow, 23 August, Friday

    Time Temperature Precipitation Wind Pressure Humidity
    00:00 +13°C° 0 mm 1 mps 757 mmHg 90%
    01:00 +13°C° 0 mm 1 mps 757 mmHg 92%
    02:00 +12°C° 0 mm 1 mps 757 mmHg 94%
    03:00 +12°C° 0 mm 1 mps 757 mmHg 94%
    04:00 +12°C° 0 mm 1 mps 757 mmHg 95%
    05:00 +12°C° 0 mm 1 mps 757 mmHg 95%
    06:00 +13°C° 0 mm 1 mps 757 mmHg 90%
    07:00 +15°C° 0 mm 1 mps 757 mmHg 84%
    08:00 +16°C° 0 mm 1 mps 758 mmHg 78%
    09:00 +19°C° 0 mm 1 mps 758 mmHg 71%
    10:00 +19°C° 0 mm 2 mps 758 mmHg 65%
    11:00 +21°C° 0 mm 2 mps 758 mmHg 58%
    12:00 +21°C° 0 mm 2 mps 757 mmHg 56%
    13:00 +23°C° 0 mm 2 mps 757 mmHg 54%
    14:00 +23°C° 0 mm 2 mps 757 mmHg 53%
    15:00 +23°C° 0 mm 2 mps 757 mmHg 57%
    16:00 +23°C° 0 mm 2 mps 757 mmHg 62%
    17:00 +23°C° 0 mm 1 mps 757 mmHg 66%
    18:00 +20°C° 0 mm 1 mps 757 mmHg 71%
    19:00 +18°C° 0 mm 1 mps 757 mmHg 75%
    20:00 +15°C° 0 mm 1 mps 756 mmHg 80%
    21:00 +15°C° 0 mm 1 mps 757 mmHg 81%
    22:00 +14°C° 0 mm 1 mps 757 mmHg 82%
    23:00 +14°C° 0 mm 1 mps 757 mmHg 84%

    24 August, Saturday

    Time Temperature Precipitation Wind Pressure Humidity
    00:00 +14°C° 0 mm 2 mps 757 mmHg 84%
    01:00 +14°C° 0 mm 2 mps 757 mmHg 85%
    02:00 +14°C° 0 mm 2 mps 757 mmHg 86%
    03:00 +13°C° 0 mm 2 mps 757 mmHg 88%
    04:00 +13°C° 0 mm 2 mps 757 mmHg 91%
    05:00 +13°C° 0 mm 2 mps 757 mmHg 94%
    06:00 +14°C° 0 mm 2 mps 756 mmHg 89%
    07:00 +16°C° 0 mm 2 mps 756 mmHg 83%
    08:00 +18°C° 0 mm 2 mps 756 mmHg 78%
    09:00 +19°C° 0 mm 3 mps 756 mmHg 73%
    10:00 +20°C° 0 mm 3 mps 756 mmHg 68%
    11:00 +22°C° 0 mm 3 mps 756 mmHg 62%
    12:00 +22°C° 0 mm 3 mps 756 mmHg 60%
    13:00 +23°C° 0 mm 4 mps 756 mmHg 59%
    14:00 +23°C° 0 mm 4 mps 755 mmHg 57%
    15:00 +24°C° 0 mm 3 mps 755 mmHg 60%
    16:00 +22°C° 0 mm 3 mps 755 mmHg 63%
    17:00 +22°C° 0 mm 3 mps 754 mmHg 67%
    18:00 +20°C° 0 mm 3 mps 754 mmHg 73%
    19:00 +18°C° 0 mm 2 mps 754 mmHg 79%
    20:00 +17°C° 0 mm 2 mps 754 mmHg 85%
    21:00 +16°C° 0 mm 2 mps 754 mmHg 86%
    22:00 +16°C° 0 mm 2 mps 754 mmHg 88%
    23:00 +15°C° 0 mm 2 mps 754 mmHg 90%

    25 August, Sunday

    Time Temperature Precipitation Wind Pressure Humidity
    00:00 +15°C° 0 mm 2 mps 754 mmHg 91%
    01:00 +15°C° 0 mm 2 mps 754 mmHg 92%
    02:00 +15°C° 0 mm 2 mps 754 mmHg 92%
    03:00 +15°C° 0 mm 2 mps 754 mmHg 94%
    04:00 +14°C° 0 mm 2 mps 754 mmHg 96%
    05:00 +14°C° 0 mm 2 mps 754 mmHg 98%
    06:00 +15°C° 0 mm 2 mps 754 mmHg 92%
    07:00 +16°C° 0 mm 2 mps 754 mmHg 87%
    08:00 +17°C° 0 mm 3 mps 754 mmHg 82%
    09:00 +18°C° 0 mm 3 mps 755 mmHg 75%
    10:00 +19°C° 0 mm 2 mps 755 mmHg 67%
    11:00 +20°C° 0 mm 2 mps 755 mmHg 59%
    12:00 +20°C° 0 mm 3 mps 755 mmHg 57%
    13:00 +21°C° 0 mm 3 mps 755 mmHg 55%
    14:00 +21°C° 0 mm 3 mps 755 mmHg 53%
    15:00 +21°C° 0 mm 2 mps 756 mmHg 57%
    16:00 +20°C° 0 mm 2 mps 756 mmHg 61%
    17:00 +20°C° 0 mm 2 mps 756 mmHg 65%
    18:00 +18°C° 0 mm 2 mps 756 mmHg 72%
    19:00 +16°C° 0 mm 1 mps 756 mmHg 80%
    20:00 +14°C° 0 mm 1 mps 756 mmHg 87%
    21:00 +14°C° 0 mm 1 mps 757 mmHg 89%
    22:00 +13°C° 0 mm 1 mps 757 mmHg 91%
    23:00 +12°C° 0 mm 1 mps 758 mmHg 93%

    26 August, Monday

    Time Temperature Precipitation Wind Pressure Humidity
    00:00 +12°C° 0 mm 1 mps 758 mmHg 93%
    01:00 +12°C° 0 mm 1 mps 758 mmHg 94%
    02:00 +11°C° 0 mm 1 mps 758 mmHg 95%
    03:00 +11°C° 0 mm 1 mps 758 mmHg 95%
    04:00 +11°C° 0 mm 1 mps 758 mmHg 96%
    05:00 +10°C° 0 mm 1 mps 758 mmHg 96%
    06:00 +12°C° 0 mm 1 mps 758 mmHg 90%
    07:00 +14°C° 0 mm 1 mps 758 mmHg 84%
    08:00 +16°C° 0 mm 1 mps 758 mmHg 78%
    09:00 +18°C° 0 mm 1 mps 758 mmHg 72%
    10:00 +19°C° 0 mm 2 mps 758 mmHg 65%
    11:00 +21°C° 0 mm 2 mps 758 mmHg 59%
    12:00 +21°C° 0 mm 2 mps 758 mmHg 57%
    13:00 +23°C° 0 mm 2 mps 758 mmHg 55%
    14:00 +23°C° 0 mm 2 mps 757 mmHg 53%
    15:00 +23°C° 0 mm 2 mps 757 mmHg 58%
    16:00 +21°C° 0 mm 2 mps 757 mmHg 63%
    17:00 +21°C° 0 mm 2 mps 756 mmHg 67%
    18:00 +19°C° 0 mm 2 mps 756 mmHg 74%
    19:00 +17°C° 0 mm 2 mps 756 mmHg 81%
    20:00 +15°C° 0 mm 2 mps 756 mmHg 88%
    21:00 +15°C° 0 mm 2 mps 756 mmHg 90%
    22:00 +14°C° 0 mm 2 mps 756 mmHg 92%
    23:00 +14°C° 0 mm 2 mps 756 mmHg 94%
    Show more